This is the latest recevied weather packets stored in our database for station/object VU3ZAG-13. If no packets are shown the sender has not sent any weather packets the latest 1 day(s).
| Time | Temp. | Humidity | Pressure | Rain* | Wind** | Luminosity | Snow |
|---|---|---|---|---|---|---|---|
| 1836274579 | 27.78° C | 61% | - | 0.25 mm | 3.13 m/s, 274° | - | - |
| 1836274447 | 27.22° C | 61% | - | 0.25 mm | 2.24 m/s, 269° | - | - |
| 1836274271 | 27.78° C | 62% | - | 0.25 mm | 2.68 m/s, 308° | - | - |
| 1836274138 | 27.78° C | 61% | - | 0.25 mm | 2.24 m/s, 279° | - | - |
| 1778035035 | 31.11° C | 46% | - | 0 mm | 0.89 m/s, 339° | - | - |
| 1778034727 | 31.11° C | 46% | - | 0 mm | 1.79 m/s, 350° | - | - |
| 1778034418 | 31.11° C | 46% | - | 0 mm | 0.89 m/s, 296° | - | - |
| 1778034110 | 31.11° C | 46% | - | 0 mm | 1.34 m/s, 273° | - | - |
| 1778033801 | 31.11° C | 47% | - | 0 mm | 0.89 m/s, 305° | - | - |
| 1778033492 | 31.11° C | 46% | - | 0 mm | 1.79 m/s, 284° | - | - |
| 1778033183 | 31.11° C | 47% | - | 0 mm | 0.89 m/s, 321° | - | - |
| 1778032875 | 31.11° C | 47% | - | 0 mm | 0.89 m/s, 298° | - | - |
| 1778032566 | 31.11° C | 47% | - | 0 mm | 0.89 m/s, 273° | - | - |
| 1778032257 | 31.11° C | 48% | - | 0 mm | 1.34 m/s, 283° | - | - |
| 1778031948 | 31.11° C | 51% | - | 0 mm | 1.34 m/s, 255° | - | - |
| 1778031639 | 31.11° C | 48% | - | 0 mm | 1.34 m/s, 278° | - | - |
| 1778031331 | 31.11° C | 47% | - | 0 mm | 1.34 m/s, 280° | - | - |
| 1778031022 | 31.11° C | 46% | - | 0 mm | 0.89 m/s, 283° | - | - |
| 1778030713 | 31.11° C | 46% | - | 0 mm | 0.89 m/s, 272° | - | - |
| 1778030404 | 31.11° C | 46% | - | 0 mm | 1.34 m/s, 279° | - | - |
| 1778030095 | 31.11° C | 46% | - | 0 mm | 1.34 m/s, 279° | - | - |
| 1778029786 | 31.11° C | 46% | - | 0 mm | 1.79 m/s, 282° | - | - |
| 1778029478 | 31.11° C | 47% | - | 0 mm | 1.79 m/s, 284° | - | - |
| 1778029169 | 31.11° C | 47% | - | 0 mm | 1.34 m/s, 280° | - | - |
| 1778028860 | 31.11° C | 47% | - | 0 mm | 1.34 m/s, 287° | - | - |
* Rain since midnight (hover to see other rain measurements)
** Current wind speed in m/s (hover to see current wind gust speed)